Flag for U.S.A. Weather past 2 weeks in Duluth, Minnesota, U.S.A.

Now
28 °F

Overcast.


Feels Like: 28 °F
Forecast: 23 / 33 °F
Wind: No wind

Location: Sky Harbor Airport

Current Time: Jan 27, 2015 at 8:40:04 AM

Latest Report: Jan 27, 2015 at 8:13 AM


Visibility: 10 mi

Pressure: 30.16 "Hg

Humidity: 86%

Dew point: 25 °F

Location of DuluthLocation

Historic Weather in Duluth — Graph

°F

Duluth temperature yesterday

Maximum temperature yesterday: 32 °F (at 8:33 PM)
Minimum temperature yesterday: 19 °F (at 12:13 AM)
Average temperature yesterday: 26 °F

Past Weeks' High & Low Weather Summary

 TemperatureHumidityPressure
High43 °F (Jan 23, 1:13 PM)93% (Jan 17, 9:13 AM)30.80 "Hg (Jan 17, 9:13 AM)
Low-11 °F (Jan 13, 6:14 AM)39% (Jan 12, 3:14 PM)29.38 "Hg (Jan 17, 12:54 PM)
Average24 °F75%30.02 "Hg
* Reported Jan 12 7:14 AM — Jan 27 7:33 AM, Duluth, Weather by CustomWeather, © 2014

Note: Actual official high and low records may vary slightly from our data, if they occured in-between our weather recording intervals... More about our weather records

Advertising

Duluth weather history for previous 24 hours

 ConditionsComfort  
Time TempWeatherWind HumidityBarometerVisibility
7:33 AM
Jan 27
28 °FOvercast.No wind86%30.15 "Hg10 mi
7:13 AM28 °FOvercast.No wind86%30.15 "Hg10 mi
6:54 AM28 °FOvercast.No wind86%30.14 "Hg10 mi
6:33 AM28 °FOvercast.No wind86%30.13 "Hg10 mi
6:13 AM28 °FMostly cloudy.6 mph80%30.12 "Hg10 mi
5:54 AM28 °FMostly cloudy.7 mph86%30.12 "Hg10 mi
5:33 AM28 °FMostly cloudy.8 mph86%30.12 "Hg10 mi
5:13 AM28 °FMostly cloudy.6 mph86%30.11 "Hg10 mi
4:53 AM28 °FOvercast.8 mph86%30.11 "Hg10 mi
4:34 AM28 °FMostly cloudy.7 mph86%30.10 "Hg10 mi
4:13 AM30 °FMostly cloudy.8 mph80%30.10 "Hg10 mi
3:53 AM30 °FMostly cloudy.7 mph80%30.10 "Hg10 mi
3:34 AM30 °FMostly cloudy.No wind80%30.09 "Hg10 mi
3:13 AM30 °FOvercast.5 mph80%30.08 "Hg10 mi
2:53 AM30 °FOvercast.7 mph86%30.08 "Hg10 mi
2:34 AM30 °FOvercast.8 mph80%30.07 "Hg10 mi
2:13 AM30 °FOvercast.No wind80%30.07 "Hg10 mi
1:53 AM30 °FOvercast.6 mph80%30.05 "Hg10 mi
1:34 AM30 °FOvercast.8 mph80%30.04 "Hg10 mi
1:13 AM30 °FOvercast.No wind80%30.04 "Hg10 mi
12:53 AM30 °FOvercast.No wind80%30.03 "Hg10 mi
12:33 AM30 °FOvercast.No wind80%30.02 "Hg10 mi
12:13 AM30 °FOvercast.7 mph80%30.01 "Hg10 mi
11:54 PM
Jan 26
30 °FOvercast.7 mph86%30.00 "Hg10 mi
11:33 PM30 °FOvercast.7 mph86%30.00 "Hg10 mi
11:13 PM30 °FOvercast.10 mph86%29.99 "Hg10 mi
10:53 PM30 °FOvercast.6 mph86%29.98 "Hg10 mi
10:14 PM30 °FMostly cloudy.9 mph86%29.97 "Hg10 mi
9:53 PM30 °FMostly cloudy.14 mph86%29.96 "Hg10 mi
9:34 PM32 °FMostly cloudy.9 mph80%29.95 "Hg10 mi
8:53 PM32 °FOvercast.10 mph80%29.94 "Hg10 mi
8:33 PM32 °FMostly cloudy.12 mph80%29.93 "Hg10 mi
8:13 PM30 °FOvercast.No wind86%29.92 "Hg10 mi
7:53 PM28 °FOvercast.No wind93%29.91 "Hg10 mi
7:33 PM28 °FOvercast.No wind93%29.90 "Hg7 mi
7:14 PM30 °FOvercast.No wind86%29.90 "Hg10 mi
6:53 PM30 °FOvercast.No wind86%29.88 "Hg10 mi
6:34 PM30 °FOvercast.No wind86%29.87 "Hg10 mi
6:13 PM30 °FOvercast.No wind86%29.86 "Hg10 mi
5:53 PM30 °FOvercast.No wind86%29.85 "Hg10 mi
5:34 PM28 °FOvercast.No wind93%29.84 "Hg10 mi
5:13 PM28 °FOvercast.No wind93%29.83 "Hg10 mi
4:53 PM28 °FOvercast.No wind93%29.81 "Hg10 mi
4:34 PM28 °FOvercast.No wind93%29.80 "Hg10 mi
4:13 PM28 °FMostly cloudy.No wind93%29.78 "Hg10 mi
3:53 PM30 °FCloudy.No wind86%29.77 "Hg10 mi
3:34 PM28 °FMore clouds than sun.No wind93%29.76 "Hg10 mi
3:13 PM28 °FMore clouds than sun.No wind93%29.75 "Hg10 mi
2:53 PM28 °FLight snow. Cloudy.No wind93%29.73 "Hg7 mi
2:34 PM28 °FLight snow. Cloudy.No wind93%29.73 "Hg2 mi
2:13 PM28 °FCloudy.No wind93%29.72 "Hg10 mi
1:53 PM28 °FCloudy.No wind93%29.73 "Hg10 mi
1:34 PM28 °FOvercast.No wind86%29.71 "Hg10 mi
1:13 PM28 °FLight snow. More clouds than sun.No wind86%29.70 "Hg7 mi
12:53 PM27 °FLow clouds.No wind93%29.70 "Hg7 mi
12:33 PM27 °FMostly cloudy.No wind93%29.70 "Hg10 mi
12:13 PM27 °FLight snow. Mostly cloudy.No wind93%29.70 "Hg10 mi
11:53 AM27 °FLight snow. Overcast.No wind93%29.70 "Hg5 mi
11:33 AM27 °FLight snow. Mostly cloudy.No wind86%29.70 "Hg7 mi
11:13 AM25 °FLight snow. Overcast.No wind93%29.70 "Hg7 mi
10:54 AM25 °FLight snow. Mostly cloudy.No wind86%29.70 "Hg3 mi
10:33 AM25 °FLight snow. More clouds than sun.No wind93%29.70 "Hg3 mi
10:14 AM25 °FLight snow. Mostly cloudy.No wind86%29.69 "Hg2 mi
9:54 AM25 °FLight snow. More clouds than sun.No wind86%29.68 "Hg2 mi
9:33 AM25 °FLight snow. More clouds than sun.No wind86%29.69 "Hg2 mi
9:14 AM23 °FLight snow. Mostly cloudy.No wind93%29.68 "Hg2 mi
8:53 AM23 °FIce fog.No wind93%29.68 "Hg2 mi
8:34 AM23 °FIce fog.No wind93%29.69 "Hg4 mi
8:14 AM23 °FIce fog.6 mph93%29.68 "Hg4 mi
Weather by CustomWeather, © 2014

See weather overviewHow to use our weather pages